This is the latest recevied weather packets stored in our database for station/object K5FEP. If no packets are shown the sender has not sent any weather packets the latest 10 day(s).
| Time | Temp. | Humidity | Pressure | Rain* | Wind** | Luminosity | Snow |
|---|---|---|---|---|---|---|---|
| 1788122494 | 33.89° C | 43% | 1018.8 hPa | 0 mm | - | 505 W/m² | - |
| 1788122191 | 34.44° C | 43% | 1018.9 hPa | 0 mm | - | 530 W/m² | - |
| 1788121891 | 34.44° C | 44% | 1018.9 hPa | 0 mm | - | 545 W/m² | - |
| 1788121591 | 33.89° C | 44% | 1018.9 hPa | 0 mm | - | 572 W/m² | - |
| 1788121286 | 33.33° C | 43% | 1019.3 hPa | 0 mm | - | 594 W/m² | - |
| 1788120986 | 33.33° C | 44% | 1019.2 hPa | 0 mm | - | 611 W/m² | - |
| 1788120681 | 32.78° C | 45% | 1019 hPa | 0 mm | - | 639 W/m² | - |
| 1788120376 | 33.33° C | 46% | 1019.2 hPa | 0 mm | - | 300 W/m² | - |
| 1788120075 | 32.78° C | 46% | 1019.2 hPa | 0 mm | - | 634 W/m² | - |
| 1788119771 | 32.78° C | 45% | 1019.2 hPa | 0 mm | - | 691 W/m² | - |
| 1788119469 | 33.33° C | 47% | 1019.2 hPa | 0 mm | - | 598 W/m² | - |
| 1788119169 | 32.78° C | 47% | 1019.3 hPa | 0 mm | - | 725 W/m² | - |
| 1788118869 | 32.78° C | 46% | 1019.3 hPa | 0 mm | - | 742 W/m² | - |
| 1788118569 | 32.78° C | 45% | 1019.2 hPa | 0 mm | - | 747 W/m² | - |
| 1788118264 | 32.78° C | 47% | 1019.5 hPa | 0 mm | - | 755 W/m² | - |
| 1788117960 | 32.22° C | 48% | 1019.4 hPa | 0 mm | - | 783 W/m² | - |
| 1788117659 | 31.67° C | 50% | 1019.6 hPa | 0 mm | - | 802 W/m² | - |
| 1788117354 | 31.67° C | 50% | 1019.8 hPa | 0 mm | - | 821 W/m² | - |
| 1788117050 | 32.78° C | 47% | 1019.8 hPa | 0 mm | - | 748 W/m² | - |
| 1788116745 | 32.78° C | 46% | 1019.9 hPa | 0 mm | - | 853 W/m² | - |
| 1788116441 | 32.22° C | 47% | 1020 hPa | 0 mm | - | 847 W/m² | - |
| 1788116139 | 32.78° C | 47% | 1020.3 hPa | 0 mm | - | 848 W/m² | - |
| 1788115835 | 32.22° C | 48% | 1020 hPa | 0 mm | - | 849 W/m² | - |
| 1788115534 | 32.22° C | 48% | 1020.2 hPa | 0 mm | - | 852 W/m² | - |
| 1788115229 | 32.78° C | 49% | 1020.4 hPa | 0 mm | - | 882 W/m² | - |
* Rain latest hour (hover to see other rain measurements)
** Current wind speed in m/s (hover to see current wind gust speed)